Location: Newark
(50.9000°N, 14.8333°E)
Time: 15:36:58
(UTC+00:00)

Envisat - Visible Passes

Search period start: 27 October 2020 00:00
Search period end: 06 November 2020 00:00
Orbit: 764 x 766 km, 98.1° (Epoch: 27 October)

Date Brightness Start Highest point End Pass type
(mag) Time Alt. Az. Time Alt. Az. Time Alt. Az.
27 Oct 6.2 03:41:32 10° NE 03:44:28 15° E 03:47:24 10° ESE visible
27 Oct 4.5 16:39:02 10° SSW 16:43:50 41° W 16:48:40 10° NNW visible
28 Oct 4.2 04:42:23 10° NNE 04:47:18 48° E 04:52:13 10° S visible
28 Oct 6.3 17:44:22 10° WSW 17:46:45 13° W 17:49:08 10° WNW visible
29 Oct 5.5 04:06:05 10° NE 04:10:13 24° E 04:14:21 10° SE visible
29 Oct 5.4 17:05:14 10° SSW 17:09:28 26° W 17:13:43 10° NW visible
30 Oct 6.4 03:30:53 10° ENE 03:32:55 12° E 03:34:58 10° ESE visible
30 Oct 3.3 05:07:42 10° NNE 05:12:49 77° ESE 05:17:54 10° S visible
30 Oct 4.1 16:27:28 10° S 16:32:24 51° W 16:37:22 10° NNW visible
31 Oct 4.6 04:31:06 10° NNE 04:35:53 39° E 04:40:37 10° SSE visible
31 Oct 6.1 17:32:04 10° SW 17:35:13 16° W 17:38:22 10° NW visible
01 Nov 5.8 03:55:00 10° NE 03:58:43 20° E 04:02:26 10° SE visible
01 Nov 5.0 16:53:29 10° SSW 16:58:00 32° W 17:02:32 10° NNW visible
02 Nov 3.6 04:56:21 10° NNE 05:01:26 63° ESE 05:06:28 10° S visible
02 Nov 3.6 16:15:57 10° S 16:20:59 63° WSW 16:26:03 10° NNW visible
03 Nov 5.0 04:19:52 10° NNE 04:24:25 32° E 04:28:57 10° SSE visible
03 Nov 5.8 17:20:00 10° SW 17:23:41 20° W 17:27:24 10° NW visible
04 Nov 6.0 03:44:01 10° NE 03:47:12 16° E 03:50:22 10° SE visible
04 Nov 3.0 05:21:46 10° NNE 05:26:53 82° WNW 05:31:58 10° SSW visible
04 Nov 4.6 16:41:48 10° SSW 16:46:32 39° W 16:51:18 10° NNW visible
05 Nov 4.0 04:45:02 10° NNE 04:50:01 51° E 04:54:57 10° S visible
05 Nov 3.3 16:04:30 10° S 16:09:35 77° WSW 16:14:42 10° NNW visible
05 Nov 6.3 17:47:29 10° WSW 17:49:29 12° W 17:51:29 10° WNW visible
